| time (UTC) | temp C | wind direction | speed KPH | gust KPH | rain 1hr cm | rain 24hr cm | rain mn cm | humidity % | barometer mb |
| 20260510120017 | 20 | 68 | 12.9 | 22.5 | 0.00 | 0.00 | 0.00 | 82 | 1013.4 |
| 20260510115017 | 20 | 68 | 17.7 | 27.4 | 0.00 | 0.00 | 0.00 | 82 | 1013.2 |
| 20260510114017 | 21 | 68 | 14.5 | 25.7 | 0.00 | 0.00 | 0.00 | 83 | 1013.1 |
| 20260510113037 | 21 | 68 | 17.7 | 29.0 | 0.00 | 0.00 | 0.00 | 83 | 1013.1 |
| 20260510112017 | 21 | 45 | 19.3 | 32.2 | 0.00 | 0.00 | 0.00 | 84 | 1013.0 |
| 20260510111017 | 22 | 45 | 12.9 | 27.4 | 0.00 | 0.00 | 0.00 | 90 | 1013.0 |
| 20260510110017 | 22 | 68 | 11.3 | 20.9 | 0.00 | 0.00 | 0.00 | 90 | 1013.0 |
| 20260510105037 | 22 | 68 | 9.7 | 17.7 | 0.00 | 0.00 | 0.00 | 90 | 1013.0 |
| 20260510104017 | 22 | 68 | 8.0 | 17.7 | 0.00 | 0.00 | 0.00 | 90 | 1012.9 |
| 20260510103017 | 22 | 68 | 8.0 | 17.7 | 0.00 | 0.00 | 0.00 | 90 | 1012.9 |
| 20260510102017 | 22 | 45 | 9.7 | 17.7 | 0.00 | 0.00 | 0.00 | 90 | 1012.8 |
| 20260510101017 | 22 | 45 | 6.4 | 16.1 | 0.00 | 0.00 | 0.00 | 90 | 1012.6 |
| 20260510100017 | 22 | 45 | 6.4 | 14.5 | 0.00 | 0.00 | 0.00 | 90 | 1012.5 |
| 20260510095017 | 21 | 45 | 4.8 | 12.9 | 0.00 | 0.00 | 0.00 | 90 | 1012.2 |
| 20260510094017 | 21 | 45 | 1.6 | 8.0 | 0.00 | 0.00 | 0.00 | 90 | 1012.1 |
| 20260510093017 | 21 | 23 | 1.6 | 8.0 | 0.00 | 0.00 | 0.00 | 89 | 1012.0 |
| 20260510092017 | 21 | 68 | 3.2 | 6.4 | 0.00 | 0.00 | 0.00 | 88 | 1011.5 |
| 20260510091017 | 21 | 23 | 3.2 | 8.0 | 0.00 | 0.00 | 0.00 | 88 | 1011.5 |
| 20260510090017 | 21 | 0.0 | 3.2 | 0.00 | 0.00 | 0.00 | 87 | 1011.6 | |
| 20260510085016 | 22 | 338 | 1.6 | 4.8 | 0.00 | 0.00 | 0.00 | 87 | 1011.3 |
| 20260510084036 | 22 | 0.0 | 3.2 | 0.00 | 0.00 | 0.00 | 87 | 1011.0 | |
| 20260510083016 | 22 | 0.0 | 1.6 | 0.00 | 0.00 | 0.00 | 87 | 1010.7 | |
| 20260510082016 | 22 | 0.0 | 1.6 | 0.00 | 0.00 | 0.00 | 87 | 1010.3 | |
| 20260510081016 | 22 | 0.0 | 0.0 | 0.00 | 0.00 | 0.00 | 86 | 1010.3 | |
| 20260510080056 | 22 | 113 | 3.2 | 6.4 | 0.00 | 0.00 | 0.00 | 86 | 1010.1 |
| 20260510075016 | 22 | 113 | 4.8 | 9.7 | 0.00 | 0.00 | 0.00 | 86 | 1010.1 |
| 20260510074016 | 22 | 113 | 6.4 | 12.9 | 0.00 | 0.00 | 0.00 | 85 | 1010.1 |
| 20260510073016 | 23 | 113 | 3.2 | 6.4 | 0.00 | 0.00 | 0.00 | 84 | 1010.4 |
| 20260510072016 | 23 | 90 | 6.4 | 12.9 | 0.00 | 0.00 | 0.00 | 83 | 1010.5 |
| 20260510071016 | 23 | 90 | 3.2 | 11.3 | 0.00 | 0.00 | 0.00 | 82 | 1010.8 |
| 20260510070016 | 23 | 90 | 6.4 | 11.3 | 0.00 | 0.00 | 0.00 | 81 | 1010.8 |
| 20260510065016 | 24 | 135 | 3.2 | 11.3 | 0.00 | 0.00 | 0.00 | 80 | 1010.9 |
| 20260510064016 | 24 | 135 | 6.4 | 16.1 | 0.00 | 0.00 | 0.00 | 80 | 1010.3 |
| 20260510063016 | 24 | 135 | 12.9 | 19.3 | 0.00 | 0.00 | 0.00 | 79 | 1009.7 |
| 20260510062016 | 24 | 135 | 12.9 | 17.7 | 0.00 | 0.00 | 0.00 | 77 | 1009.7 |
| 20260510061016 | 24 | 135 | 16.1 | 22.5 | 0.00 | 0.00 | 0.00 | 76 | 1009.4 |
| 20260510060016 | 24 | 135 | 12.9 | 19.3 | 0.00 | 0.00 | 0.00 | 75 | 1009.3 |
| 20260510055036 | 24 | 135 | 14.5 | 22.5 | 0.00 | 0.00 | 0.00 | 75 | 1009.2 |
| 20260510054016 | 24 | 135 | 14.5 | 22.5 | 0.00 | 0.00 | 0.00 | 75 | 1009.1 |
| 20260510053036 | 23 | 135 | 11.3 | 19.3 | 0.00 | 0.00 | 0.00 | 75 | 1009.0 |
| 20260510052016 | 23 | 113 | 8.0 | 16.1 | 0.00 | 0.00 | 0.00 | 74 | 1008.9 |
| 20260510051016 | 23 | 113 | 8.0 | 12.9 | 0.00 | 0.00 | 0.00 | 73 | 1008.8 |
| 20260510050016 | 23 | 113 | 9.7 | 14.5 | 0.00 | 0.00 | 0.00 | 72 | 1008.8 |
| 20260510045016 | 23 | 113 | 11.3 | 16.1 | 0.00 | 0.00 | 0.00 | 73 | 1008.8 |
| 20260510044016 | 23 | 113 | 12.9 | 20.9 | 0.00 | 0.00 | 0.00 | 73 | 1009.1 |
| 20260510043016 | 23 | 113 | 9.7 | 16.1 | 0.00 | 0.00 | 0.00 | 74 | 1009.1 |
| 20260510042016 | 23 | 113 | 11.3 | 17.7 | 0.00 | 0.00 | 0.00 | 74 | 1009.0 |
| 20260510041016 | 23 | 113 | 9.7 | 16.1 | 0.00 | 0.00 | 0.00 | 73 | 1009.2 |
| 20260510040016 | 23 | 90 | 9.7 | 14.5 | 0.00 | 0.00 | 0.00 | 72 | 1009.1 |
| 20260510035036 | 23 | 113 | 8.0 | 12.9 | 0.00 | 0.00 | 0.00 | 71 | 1009.2 |
| 20260510034016 | 23 | 90 | 6.4 | 11.3 | 0.00 | 0.00 | 0.00 | 71 | 1009.3 |
| 20260510033036 | 23 | 90 | 8.0 | 12.9 | 0.00 | 0.00 | 0.00 | 70 | 1009.2 |
| 20260510032016 | 23 | 90 | 8.0 | 12.9 | 0.00 | 0.00 | 0.00 | 70 | 1009.2 |
| 20260510031016 | 23 | 90 | 8.0 | 12.9 | 0.00 | 0.00 | 0.00 | 71 | 1009.0 |
| 20260510030036 | 23 | 90 | 4.8 | 11.3 | 0.00 | 0.00 | 0.00 | 70 | 1008.9 |
| 20260510025056 | 24 | 90 | 4.8 | 9.7 | 0.00 | 0.00 | 0.00 | 70 | 1008.9 |
| 20260510024016 | 24 | 90 | 3.2 | 4.8 | 0.00 | 0.00 | 0.00 | 69 | 1008.7 |
| 20260510023016 | 25 | 90 | 3.2 | 4.8 | 0.00 | 0.00 | 0.00 | 68 | 1008.7 |
| 20260510022016 | 25 | 90 | 3.2 | 4.8 | 0.00 | 0.00 | 0.00 | 67 | 1008.6 |
| 20260510021016 | 25 | 90 | 3.2 | 4.8 | 0.00 | 0.00 | 0.00 | 67 | 1008.4 |
| 20260510020016 | 25 | 90 | 3.2 | 4.8 | 0.00 | 0.00 | 0.00 | 66 | 1008.3 |
| 20260510015016 | 25 | 90 | 3.2 | 4.8 | 0.00 | 0.00 | 0.00 | 66 | 1008.3 |
| 20260510014016 | 26 | 90 | 1.6 | 4.8 | 0.00 | 0.00 | 0.00 | 64 | 1008.1 |
| 20260510013016 | 26 | 90 | 3.2 | 6.4 | 0.00 | 0.00 | 0.00 | 63 | 1007.9 |
| 20260510012016 | 26 | 90 | 3.2 | 6.4 | 0.00 | 0.00 | 0.00 | 62 | 1007.8 |
| 20260510011016 | 27 | 90 | 3.2 | 4.8 | 0.00 | 0.00 | 0.00 | 61 | 1007.8 |
| 20260510010016 | 27 | 90 | 3.2 | 6.4 | 0.00 | 0.00 | 0.00 | 60 | 1007.8 |
| 20260510005016 | 28 | 90 | 3.2 | 6.4 | 0.00 | 0.00 | 0.00 | 59 | 1007.7 |
| 20260510004036 | 28 | 90 | 3.2 | 6.4 | 0.00 | 0.00 | 0.00 | 59 | 1007.7 |
| 20260510003036 | 28 | 90 | 1.6 | 6.4 | 0.00 | 0.00 | 0.00 | 58 | 1007.6 |
| 20260510002016 | 29 | 90 | 1.6 | 4.8 | 0.00 | 0.00 | 0.00 | 56 | 1007.7 |
| 20260510001036 | 29 | 90 | 3.2 | 6.4 | 0.00 | 0.00 | 0.00 | 56 | 1007.7 |
| 20260510000016 | 30 | 90 | 3.2 | 8.0 | 0.00 | 0.00 | 0.00 | 54 | 1007.8 |
| 20260509235016 | 30 | 90 | 3.2 | 11.3 | 0.00 | 0.00 | 0.00 | 54 | 1007.9 |
| 20260509234016 | 30 | 90 | 4.8 | 9.7 | 0.00 | 0.00 | 0.00 | 53 | 1007.8 |
| 20260509233036 | 30 | 135 | 1.6 | 6.4 | 0.00 | 0.00 | 0.00 | 52 | 1007.9 |
| 20260509232016 | 30 | 113 | 1.6 | 6.4 | 0.00 | 0.00 | 0.00 | 50 | 1007.8 |
| 20260509231016 | 30 | 113 | 1.6 | 9.7 | 0.00 | 0.00 | 0.00 | 51 | 1007.9 |
| 20260509230016 | 30 | 113 | 3.2 | 9.7 | 0.00 | 0.00 | 0.00 | 50 | 1008.0 |
| 20260509225016 | 31 | 113 | 6.4 | 11.3 | 0.00 | 0.00 | 0.00 | 50 | 1007.9 |
| 20260509224016 | 31 | 135 | 1.6 | 8.0 | 0.00 | 0.00 | 0.00 | 50 | 1007.9 |
| 20260509223016 | 31 | 113 | 1.6 | 9.7 | 0.00 | 0.00 | 0.00 | 49 | 1008.0 |
| 20260509222016 | 31 | 113 | 4.8 | 9.7 | 0.00 | 0.00 | 0.00 | 49 | 1007.9 |
| 20260509221016 | 31 | 90 | 1.6 | 9.7 | 0.00 | 0.00 | 0.00 | 49 | 1008.0 |
| 20260509220016 | 31 | 68 | 3.2 | 11.3 | 0.00 | 0.00 | 0.00 | 49 | 1008.1 |
| 20260509215016 | 32 | 90 | 4.8 | 11.3 | 0.00 | 0.00 | 0.00 | 50 | 1008.2 |
| 20260509214016 | 32 | 135 | 4.8 | 12.9 | 0.00 | 0.00 | 0.00 | 48 | 1008.2 |
| 20260509213016 | 32 | 0.0 | 1.6 | 0.00 | 0.00 | 0.00 | 46 | 1008.3 | |
| 20260509212016 | 32 | 135 | 1.6 | 4.8 | 0.00 | 0.00 | 0.00 | 47 | 1008.5 |
| 20260509211016 | 32 | 113 | 1.6 | 8.0 | 0.00 | 0.00 | 0.00 | 46 | 1008.6 |
| 20260509210016 | 32 | 90 | 4.8 | 12.9 | 0.00 | 0.00 | 0.00 | 50 | 1008.7 |
| 20260509205016 | 32 | 0.0 | 3.2 | 0.00 | 0.00 | 0.00 | 47 | 1008.8 | |
| 20260509204016 | 32 | 90 | 1.6 | 6.4 | 0.00 | 0.00 | 0.00 | 47 | 1009.0 |
| 20260509203016 | 32 | 0.0 | 1.6 | 0.00 | 0.00 | 0.00 | 46 | 1009.2 | |
| 20260509202036 | 32 | 0.0 | 6.4 | 0.00 | 0.00 | 0.00 | 45 | 1009.3 | |
| 20260509201016 | 32 | 293 | 1.6 | 12.9 | 0.00 | 0.00 | 0.00 | 46 | 1009.3 |
| 20260509200015 | 32 | 293 | 1.6 | 9.7 | 0.00 | 0.03 | 0.00 | 48 | 1009.6 |
| 20260509195015 | 32 | 293 | 1.6 | 14.5 | 0.00 | 0.10 | 0.00 | 46 | 1009.6 |
| 20260509194016 | 32 | 293 | 3.2 | 11.3 | 0.00 | 0.13 | 0.00 | 47 | 1009.7 |
| 20260509193016 | 32 | 0.0 | 1.6 | 0.00 | 0.13 | 0.00 | 46 | 1009.9 | |
| 20260509192036 | 31 | 0.0 | 3.2 | 0.00 | 0.13 | 0.00 | 48 | 1010.0 | |
| 20260509191016 | 31 | 0.0 | 8.0 | 0.00 | 0.13 | 0.00 | 50 | 1009.9 | |
| 20260509190016 | 30 | 293 | 1.6 | 11.3 | 0.00 | 0.13 | 0.00 | 52 | 1010.0 |
| 20260509185015 | 30 | 270 | 3.2 | 11.3 | 0.00 | 0.13 | 0.00 | 52 | 1010.0 |
| 20260509184015 | 30 | 293 | 3.2 | 11.3 | 0.00 | 0.13 | 0.00 | 53 | 1010.1 |
| 20260509183016 | 30 | 293 | 4.8 | 14.5 | 0.00 | 0.13 | 0.00 | 52 | 1010.2 |
| 20260509182015 | 31 | 293 | 1.6 | 12.9 | 0.00 | 0.13 | 0.00 | 52 | 1010.5 |
| 20260509181015 | 30 | 293 | 1.6 | 9.7 | 0.00 | 0.13 | 0.00 | 53 | 1010.5 |
| 20260509180016 | 30 | 270 | 3.2 | 11.3 | 0.00 | 0.13 | 0.00 | 53 | 1010.7 |
| 20260509175016 | 30 | 315 | 3.2 | 12.9 | 0.00 | 0.13 | 0.00 | 54 | 1010.7 |
| 20260509174016 | 29 | 0.0 | 4.8 | 0.00 | 0.13 | 0.00 | 57 | 1010.8 | |
| 20260509173016 | 29 | 293 | 6.4 | 17.7 | 0.00 | 0.13 | 0.00 | 54 | 1010.9 |
| 20260509172016 | 29 | 270 | 3.2 | 12.9 | 0.00 | 0.13 | 0.00 | 55 | 1011.0 |
| 20260509171016 | 28 | 0.0 | 9.7 | 0.00 | 0.13 | 0.00 | 58 | 1011.1 | |
| 20260509170016 | 28 | 293 | 1.6 | 8.0 | 0.00 | 0.13 | 0.00 | 58 | 1011.1 |
| 20260509165016 | 28 | 270 | 1.6 | 9.7 | 0.00 | 0.13 | 0.00 | 61 | 1011.1 |
| 20260509164016 | 28 | 270 | 1.6 | 14.5 | 0.00 | 0.13 | 0.00 | 59 | 1011.2 |
| 20260509163016 | 28 | 0.0 | 9.7 | 0.00 | 0.13 | 0.00 | 62 | 1011.3 | |
| 20260509162016 | 27 | 0.0 | 4.8 | 0.00 | 0.13 | 0.00 | 63 | 1011.2 | |
| 20260509161016 | 27 | 270 | 8.0 | 16.1 | 0.00 | 0.13 | 0.00 | 61 | 1011.2 |
| 20260509160015 | 27 | 270 | 1.6 | 9.7 | 0.00 | 0.13 | 0.00 | 62 | 1011.3 |
| 20260509155036 | 27 | 270 | 1.6 | 9.7 | 0.00 | 0.13 | 0.00 | 64 | 1011.2 |
| 20260509154036 | 26 | 293 | 1.6 | 6.4 | 0.00 | 0.13 | 0.00 | 66 | 1011.1 |
| 20260509153016 | 26 | 293 | 1.6 | 6.4 | 0.00 | 0.13 | 0.00 | 67 | 1011.0 |
| 20260509152015 | 26 | 293 | 6.4 | 12.9 | 0.00 | 0.13 | 0.00 | 67 | 1010.9 |
| 20260509151016 | 25 | 293 | 3.2 | 12.9 | 0.00 | 0.13 | 0.00 | 67 | 1010.9 |
| 20260509150036 | 25 | 315 | 8.0 | 14.5 | 0.00 | 0.13 | 0.00 | 69 | 1010.9 |
| 20260509145016 | 24 | 293 | 11.3 | 17.7 | 0.00 | 0.13 | 0.00 | 69 | 1011.0 |
| 20260509144016 | 23 | 338 | 8.0 | 14.5 | 0.00 | 0.13 | 0.00 | 75 | 1011.0 |
| 20260509143015 | 23 | 315 | 9.7 | 17.7 | 0.00 | 0.13 | 0.00 | 78 | 1011.0 |
| 20260509142035 | 22 | 270 | 6.4 | 14.5 | 0.00 | 0.13 | 0.00 | 81 | 1011.0 |
| 20260509141015 | 22 | 293 | 4.8 | 12.9 | 0.00 | 0.13 | 0.00 | 83 | 1011.1 |
| 20260509140016 | 22 | 270 | 4.8 | 12.9 | 0.00 | 0.13 | 0.00 | 83 | 1011.1 |
| 20260509135016 | 21 | 293 | 3.2 | 14.5 | 0.00 | 0.13 | 0.00 | 83 | 1011.1 |
| 20260509134015 | 21 | 270 | 4.8 | 12.9 | 0.00 | 0.13 | 0.00 | 84 | 1011.0 |
| 20260509133036 | 21 | 0.0 | 1.6 | 0.00 | 0.13 | 0.00 | 84 | 1011.0 | |
| 20260509132016 | 21 | 293 | 3.2 | 12.9 | 0.00 | 0.13 | 0.00 | 85 | 1010.8 |
| 20260509131015 | 21 | 0.0 | 0.0 | 0.00 | 0.13 | 0.00 | 86 | 1010.7 | |
| 20260509130015 | 20 | 0.0 | 1.6 | 0.00 | 0.13 | 0.00 | 87 | 1010.7 | |
| 20260509125015 | 20 | 0.0 | 3.2 | 0.00 | 0.13 | 0.00 | 87 | 1010.7 | |
| 20260509124015 | 19 | 0.0 | 0.0 | 0.00 | 0.13 | 0.00 | 88 | 1010.7 | |
| 20260509123015 | 18 | 0.0 | 0.0 | 0.00 | 0.13 | 0.00 | 87 | 1010.5 | |
| 20260509122016 | 18 | 0.0 | 4.8 | 0.00 | 0.13 | 0.00 | 87 | 1010.5 | |
| 20260509121016 | 18 | 0.0 | 0.0 | 0.00 | 0.13 | 0.00 | 86 | 1010.4 |